�������l�o���
Date,Time,MP-1(��Sv/h),MP-2(��Sv/h),MP-3(��Sv/h),MP-4(��Sv/h),MP-5(��Sv/h),MP-6(��Sv/h),MP-7(��Sv/h),MP-8(��Sv/h),����,����(m/s),���J
2020/11/12,00:00,0.668,0.970,0.610,1.204,0.862,0.384,0.675,0.633,�k��,5.2,��
2020/11/12,00:10,0.666,0.968,0.611,1.204,0.861,0.383,0.672,0.634,�k��,5.4,��
2020/11/12,00:20,0.666,0.969,0.610,1.205,0.861,0.384,0.674,0.634,�k��,4.8,��
2020/11/12,00:30,0.668,0.969,0.611,1.204,0.862,0.383,0.673,0.633,�k��,4.8,��
2020/11/12,00:40,0.666,0.970,0.609,1.207,0.862,0.383,0.674,0.633,�k��,5.4,��
2020/11/12,00:50,0.666,0.969,0.610,1.205,0.861,0.382,0.675,0.632,�k��,5.4,��
2020/11/12,01:00,0.665,0.967,0.609,1.204,0.864,0.384,0.674,0.633,�k��,5.2,��
2020/11/12,01:10,0.667,0.967,0.609,1.204,0.859,0.381,0.674,0.632,�k��,4.9,��
2020/11/12,01:20,0.665,0.968,0.611,1.206,0.862,0.383,0.672,0.632,�k��,4.5,��
2020/11/12,01:30,0.667,0.969,0.610,1.203,0.861,0.381,0.673,0.633,�k��,5.3,��
2020/11/12,01:40,0.666,0.971,0.611,1.206,0.862,0.383,0.674,0.634,�k��,4.9,��
2020/11/12,01:50,0.665,0.967,0.608,1.204,0.861,0.381,0.674,0.633,�k��,5.1,��
2020/11/12,02:00,0.666,0.968,0.610,1.205,0.862,0.382,0.673,0.633,�k��,5.0,��
2020/11/12,02:10,0.667,0.970,0.610,1.203,0.860,0.382,0.674,0.635,�k��,4.5,��
2020/11/12,02:20,0.666,0.970,0.609,1.204,0.860,0.382,0.673,0.634,�k��,4.8,��
2020/11/12,02:30,0.664,0.968,0.611,1.205,0.863,0.382,0.673,0.635,�k��,5.3,��
2020/11/12,02:40,0.667,0.969,0.609,1.206,0.860,0.381,0.673,0.634,�k��,4.6,��
2020/11/12,02:50,0.666,0.968,0.610,1.205,0.861,0.381,0.673,0.634,�k��,4.3,��
2020/11/12,03:00,0.665,0.969,0.610,1.206,0.862,0.383,0.675,0.634,�k��,4.0,��
2020/11/12,03:10,0.666,0.967,0.608,1.203,0.861,0.383,0.674,0.635,�k��,4.0,��
2020/11/12,03:20,0.665,0.969,0.610,1.204,0.861,0.383,0.674,0.634,�k��,4.3,��
2020/11/12,03:30,0.665,0.968,0.610,1.206,0.860,0.383,0.674,0.632,�k��,3.8,��
2020/11/12,03:40,0.664,0.967,0.608,1.203,0.861,0.383,0.674,0.634,�k��,3.7,��
2020/11/12,03:50,0.666,0.967,0.609,1.205,0.861,0.382,0.673,0.634,�k��,3.7,��
2020/11/12,04:00,0.664,0.969,0.609,1.204,0.858,0.383,0.673,0.633,�k��,4.3,��
2020/11/12,04:10,0.666,0.969,0.611,1.205,0.861,0.382,0.673,0.635,�k��,4.3,��
2020/11/12,04:20,0.665,0.968,0.610,1.203,0.862,0.383,0.673,0.635,�k��,4.8,��
2020/11/12,04:30,0.665,0.969,0.611,1.204,0.862,0.381,0.673,0.633,�k��,4.9,��
2020/11/12,04:40,0.666,0.968,0.610,1.205,0.860,0.382,0.671,0.633,�k�k��,4.9,��
2020/11/12,04:50,0.665,0.967,0.611,1.205,0.859,0.382,0.675,0.634,�k�k��,4.7,��
2020/11/12,05:00,0.665,0.968,0.608,1.206,0.861,0.383,0.673,0.634,�k�k��,4.7,��
2020/11/12,05:10,0.665,0.970,0.611,1.205,0.861,0.381,0.673,0.635,�k�k��,5.1,��
2020/11/12,05:20,0.666,0.970,0.611,1.202,0.860,0.381,0.674,0.633,�k�k��,5.2,��
2020/11/12,05:30,0.665,0.967,0.610,1.207,0.861,0.382,0.674,0.634,�k�k��,5.7,��
2020/11/12,05:40,0.666,0.968,0.610,1.205,0.860,0.382,0.673,0.634,�k�k��,5.3,��
2020/11/12,05:50,0.665,0.970,0.609,1.207,0.860,0.382,0.674,0.634,�k�k��,5.2,��
2020/11/12,06:00,0.665,0.967,0.610,1.207,0.861,0.383,0.673,0.634,�k�k��,6.0,��
2020/11/12,06:10,0.665,0.968,0.608,1.203,0.861,0.383,0.672,0.632,�k�k��,6.0,��
2020/11/12,06:20,0.666,0.968,0.611,1.204,0.860,0.382,0.673,0.633,�k��,6.0,��
2020/11/12,06:30,0.665,0.968,0.608,1.203,0.861,0.382,0.671,0.634,�k��,5.9,��
2020/11/12,06:40,0.664,0.966,0.610,1.204,0.858,0.381,0.674,0.634,�k��,5.9,��
2020/11/12,06:50,0.665,0.969,0.608,1.204,0.862,0.382,0.674,0.634,�k��,5.7,��
2020/11/12,07:00,0.665,0.968,0.610,1.203,0.859,0.382,0.674,0.633,�k��,6.0,��
2020/11/12,07:10,0.667,0.968,0.609,1.204,0.861,0.382,0.674,0.634,�k��,5.1,��
2020/11/12,07:20,0.666,0.966,0.608,1.203,0.862,0.382,0.673,0.634,�k��,5.0,��
2020/11/12,07:30,0.667,0.966,0.610,1.205,0.858,0.382,0.675,0.634,�k��,4.3,��
2020/11/12,07:40,0.664,0.969,0.609,1.206,0.861,0.381,0.672,0.634,�k��,4.2,��
2020/11/12,07:50,0.666,0.967,0.610,1.207,0.861,0.384,0.675,0.633,�k��,3.5,��
2020/11/12,08:00,0.666,0.965,0.609,1.204,0.860,0.383,0.675,0.633,�k��,2.6,��
2020/11/12,08:10,0.667,0.968,0.610,1.205,0.862,0.383,0.673,0.633,���k��,3.1,��
2020/11/12,08:20,0.667,0.967,0.611,1.206,0.860,0.383,0.675,0.634,���k��,2.6,��
2020/11/12,08:30,0.667,0.967,0.610,1.204,0.861,0.383,0.674,0.636,���k��,1.4,��
2020/11/12,08:40,0.668,0.967,0.608,1.204,0.859,0.383,0.677,0.634,���k��,1.4,��
2020/11/12,08:50,0.667,0.968,0.610,1.206,0.861,0.381,0.675,0.634,��,1.7,��
2020/11/12,09:00,0.668,0.966,0.609,1.204,0.861,0.382,0.677,0.634,��,1.4,��
2020/11/12,09:10,0.669,0.966,0.610,1.205,0.861,0.383,0.673,0.635,��,1.1,��
2020/11/12,09:20,0.669,0.965,0.610,1.208,0.861,0.383,0.673,0.634,��쓌,1.7,��
2020/11/12,09:30,0.667,0.964,0.612,1.205,0.861,0.382,0.672,0.635,��쓌,0.9,��
2020/11/12,09:40,0.667,0.963,0.611,1.204,0.862,0.383,0.673,0.635,��,0.6,��
2020/11/12,09:50,0.670,0.964,0.612,1.205,0.863,0.384,0.673,0.635,�k��,1.4,��
2020/11/12,10:00,0.669,0.963,0.612,1.205,0.862,0.383,0.674,0.633,�k��,1.5,��
2020/11/12,10:10,0.667,0.964,0.612,1.207,0.863,0.382,0.673,0.635,�k��,1.5,��
2020/11/12,10:20,0.662,0.962,0.611,1.204,0.863,0.385,0.672,0.634,�k�k��,2.5,��
2020/11/12,10:30,0.669,0.964,0.609,1.206,0.861,0.384,0.672,0.635,�k��,2.6,��
2020/11/12,10:40,0.670,0.955,0.610,1.204,0.865,0.383,0.673,0.636,�k�k��,2.6,��
2020/11/12,10:50,0.671,0.955,0.608,1.205,0.866,0.383,0.672,0.636,���k��,3.6,��
2020/11/12,11:00,0.670,0.965,0.612,1.206,0.862,0.381,0.672,0.635,�k�k��,2.9,��
2020/11/12,11:10,0.668,0.965,0.611,1.207,0.863,0.382,0.674,0.635,�k��,3.4,��
2020/11/12,11:20,0.670,0.965,0.612,1.206,0.864,0.382,0.673,0.634,�k��,3.7,��
2020/11/12,11:30,0.668,0.964,0.612,1.206,0.861,0.383,0.672,0.635,���k��,3.8,��
2020/11/12,11:40,0.670,0.965,0.613,1.205,0.862,0.384,0.673,0.636,�k��,4.0,��
2020/11/12,11:50,0.669,0.968,0.614,1.207,0.864,0.383,0.674,0.635,���k��,4.0,��
2020/11/12,12:00,0.671,0.971,0.612,1.206,0.863,0.383,0.674,0.635,�k��,5.2,��
2020/11/12,12:10,0.671,0.972,0.616,1.206,0.863,0.383,0.672,0.635,���k��,3.9,��
2020/11/12,12:20,0.670,0.971,0.614,1.205,0.862,0.384,0.675,0.634,�k��,3.4,��
2020/11/12,12:30,0.672,0.970,0.613,1.206,0.862,0.384,0.675,0.635,���k��,3.7,��
2020/11/12,12:40,0.671,0.970,0.612,1.205,0.864,0.383,0.674,0.634,���k��,2.6,��
2020/11/12,12:50,0.672,0.970,0.613,1.206,0.861,0.385,0.673,0.633,��,3.1,��
2020/11/12,13:00,0.669,0.967,0.614,1.205,0.862,0.384,0.673,0.633,��,2.5,��
2020/11/12,13:10,0.671,0.966,0.612,1.206,0.862,0.386,0.676,0.634,���k��,1.9,��
2020/11/12,13:20,0.670,0.966,0.613,1.208,0.861,0.383,0.674,0.635,���k��,2.3,��
2020/11/12,13:30,0.672,0.964,0.613,1.206,0.862,0.385,0.674,0.634,���k��,2.3,��
2020/11/12,13:40,0.669,0.967,0.613,1.204,0.860,0.385,0.674,0.633,��,2.3,��
2020/11/12,13:50,0.673,0.967,0.614,1.205,0.861,0.385,0.675,0.634,���쓌,2.3,��
2020/11/12,14:00,0.671,0.970,0.615,1.207,0.861,0.383,0.674,0.634,�쓌,2.2,��
2020/11/12,14:10,0.670,0.970,0.614,1.208,0.861,0.384,0.673,0.634,���쓌,2.0,��
2020/11/12,14:20,0.672,0.974,0.614,1.207,0.863,0.384,0.674,0.635,��,2.5,��
2020/11/12,14:30,0.670,0.971,0.614,1.206,0.861,0.385,0.675,0.634,���쓌,2.6,��
2020/11/12,14:40,0.671,0.971,0.616,1.206,0.864,0.386,0.675,0.636,���k��,1.9,��
2020/11/12,14:50,0.668,0.973,0.614,1.206,0.863,0.383,0.675,0.635,���쓌,2.0,��
2020/11/12,15:00,0.671,0.973,0.615,1.205,0.864,0.383,0.674,0.636,���쓌,2.3,��
2020/11/12,15:10,0.671,0.972,0.614,1.206,0.863,0.384,0.675,0.636,�쓌,1.9,��
2020/11/12,15:20,0.667,0.971,0.613,1.204,0.866,0.382,0.676,0.635,���쓌,1.5,��
2020/11/12,15:30,0.670,0.971,0.616,1.205,0.862,0.383,0.675,0.637,��,2.2,��
2020/11/12,15:40,0.670,0.973,0.614,1.205,0.862,0.384,0.675,0.635,��,2.3,��
2020/11/12,15:50,0.670,0.971,0.615,1.206,0.863,0.384,0.675,0.636,���쓌,1.9,��
2020/11/12,16:00,0.670,0.974,0.614,1.205,0.862,0.383,0.677,0.635,���쓌,2.2,��
2020/11/12,16:10,0.674,0.974,0.614,1.206,0.862,0.383,0.676,0.637,�쓌,2.3,��
2020/11/12,16:20,0.671,0.972,0.613,1.206,0.864,0.384,0.677,0.637,��쓌,2.9,��
2020/11/12,16:30,0.672,0.973,0.616,1.205,0.862,0.385,0.674,0.635,�쓌,2.3,��
2020/11/12,16:40,0.670,0.973,0.612,1.206,0.861,0.383,0.676,0.634,��쓌,2.3,��
2020/11/12,16:50,0.672,0.975,0.614,1.206,0.863,0.383,0.678,0.635,�쓌,2.2,��
2020/11/12,17:00,0.672,0.972,0.613,1.206,0.864,0.383,0.676,0.635,��쓌,2.0,��
2020/11/12,17:10,0.670,0.975,0.614,1.204,0.864,0.384,0.675,0.635,��쓌,1.4,��
2020/11/12,17:20,0.671,0.972,0.613,1.206,0.861,0.384,0.677,0.636,��,0.8,��
2020/11/12,17:30,0.671,0.974,0.612,1.205,0.862,0.384,0.676,0.635,��쐼,1.7,��
2020/11/12,17:40,0.672,0.973,0.612,1.205,0.865,0.382,0.675,0.635,�쐼,1.5,��
2020/11/12,17:50,0.669,0.973,0.612,1.206,0.861,0.386,0.676,0.636,�쐼,1.5,��
2020/11/12,18:00,0.669,0.973,0.616,1.206,0.863,0.383,0.678,0.635,��쐼,1.4,��
2020/11/12,18:10,0.670,0.973,0.611,1.205,0.864,0.384,0.675,0.634,��쐼,1.2,��
2020/11/12,18:20,0.670,0.971,0.612,1.207,0.865,0.384,0.676,0.634,��쐼,1.4,��
2020/11/12,18:30,0.670,0.973,0.614,1.207,0.863,0.383,0.675,0.633,��쐼,2.0,��
2020/11/12,18:40,0.668,0.972,0.612,1.205,0.864,0.382,0.675,0.634,��쐼,2.0,��
2020/11/12,18:50,0.670,0.970,0.613,1.207,0.865,0.382,0.677,0.635,��쐼,1.9,��
2020/11/12,19:00,0.669,0.971,0.614,1.207,0.864,0.384,0.676,0.634,��쐼,1.7,��
2020/11/12,19:10,0.669,0.972,0.614,1.204,0.864,0.382,0.677,0.634,��쐼,1.7,��
2020/11/12,19:20,0.669,0.974,0.614,1.204,0.863,0.382,0.675,0.634,��쐼,1.7,��
2020/11/12,19:30,0.669,0.973,0.613,1.205,0.864,0.383,0.674,0.634,��쐼,1.7,��
2020/11/12,19:40,0.670,0.972,0.614,1.203,0.863,0.382,0.674,0.634,��쐼,1.9,��
2020/11/12,19:50,0.667,0.973,0.612,1.205,0.863,0.383,0.675,0.634,��쐼,2.0,��
2020/11/12,20:00,0.670,0.971,0.613,1.208,0.864,0.383,0.676,0.635,��쐼,2.3,��
2020/11/12,20:10,0.670,0.971,0.612,1.203,0.865,0.385,0.673,0.635,��쐼,2.3,��
2020/11/12,20:20,0.669,0.974,0.614,1.204,0.863,0.385,0.675,0.635,��쐼,2.3,��
2020/11/12,20:30,0.668,0.974,0.614,1.208,0.862,0.385,0.673,0.634,��,2.6,��
2020/11/12,20:40,0.668,0.973,0.613,1.205,0.860,0.383,0.674,0.634,��,2.8,��
2020/11/12,20:50,0.669,0.971,0.613,1.203,0.863,0.384,0.675,0.634,��,3.2,��
2020/11/12,21:00,0.669,0.971,0.613,1.205,0.863,0.384,0.674,0.635,��쐼,3.4,��
2020/11/12,21:10,0.669,0.973,0.613,1.204,0.863,0.382,0.675,0.634,��쐼,3.2,��
2020/11/12,21:20,0.668,0.971,0.614,1.205,0.861,0.383,0.674,0.634,��,3.7,��
2020/11/12,21:30,0.669,0.972,0.612,1.203,0.863,0.384,0.674,0.635,��,4.4,��
2020/11/12,21:40,0.668,0.971,0.613,1.209,0.863,0.383,0.674,0.634,��,3.7,��
2020/11/12,21:50,0.668,0.970,0.614,1.204,0.859,0.384,0.675,0.635,��쐼,2.9,��
2020/11/12,22:00,0.668,0.971,0.612,1.205,0.861,0.384,0.675,0.634,��쐼,3.0,��
2020/11/12,22:10,0.670,0.974,0.613,1.203,0.862,0.382,0.675,0.634,��쐼,3.4,��
2020/11/12,22:20,0.668,0.969,0.613,1.206,0.863,0.383,0.674,0.634,��,3.5,��
2020/11/12,22:30,0.669,0.972,0.612,1.203,0.863,0.383,0.674,0.633,��,3.4,��
2020/11/12,22:40,0.668,0.970,0.614,1.204,0.862,0.383,0.673,0.636,��,3.8,��
2020/11/12,22:50,0.672,0.971,0.612,1.204,0.864,0.383,0.675,0.635,��,4.2,��
2020/11/12,23:00,0.668,0.970,0.615,1.205,0.861,0.384,0.675,0.635,��,4.7,��
2020/11/12,23:10,0.671,0.970,0.612,1.201,0.865,0.385,0.674,0.633,��,4.7,��
2020/11/12,23:20,0.668,0.971,0.612,1.208,0.862,0.383,0.675,0.633,��,4.9,��
2020/11/12,23:30,0.667,0.971,0.613,1.205,0.862,0.383,0.677,0.633,��쓌,4.3,��
2020/11/12,23:40,0.668,0.969,0.615,1.205,0.863,0.385,0.674,0.634,��쓌,4.0,��
2020/11/12,23:50,0.669,0.972,0.612,1.204,0.862,0.384,0.675,0.635,��,4.2,��
